Cloud_Cover
100 100 100 100 98 96 40 100 90 100 100 100 100 73 100 93 88 92 63 100 99 100 5 9 8 79 67 91 100 24 44 13 13 17 66 100 100 100 100 100 100 100 100 100 100 100 100 100 100 100 100 100 100 100
100 100 100 99 100 39 100 94 100 100 100 100 100 100 100 100 82 88 82 100 100 100 42 5 42 5 8 27 99 100 91 98 100 89 39 71 100 100 100 100 100 100 100 100 100 100 100 100 100 100 100 100 100 100
100 100 100 100 100 100 98 94 100 100 100 100 92 98 100 100 59 78 89 100 99 38 12 81 45 1 4 5 24 97 100 100 99 100 100 100 100 100 100 100 100 100 100 99 100 100 100 100 100 100 100 100 100 100
100 100 100 100 94 38 100 100 100 100 100 100 43 89 100 100 80 63 100 100 13 79 95 10 0 8 96 86 9 98 91 100 97 100 100 100 100 100 64 83 98 99 100 100 100 100 100 100 100 100 100 100 100 100
100 100 100 100 95 55 100 100 100 100 100 100 82 89 100 99 87 10 11 15 5 61 53 27 4 1 10 67 100 95 100 60 100 100 100 100 86 93 99 100 100 100 100 99 96 79 100 100 100 100 100 100 100 100
100 100 100 100 100 100 100 100 100 100 100 100 34 95 93 34 9 19 6 82 98 100 94 82 5 2 5 5 76 51 100 100 100 100 100 100 100 100 100 100 100 100 100 100 100 100 100 100 100 100 100 100 100 100
100 100 100 100 100 100 100 100 100 100 100 100 100 21 16 16 5 5 12 100 99 99 100 79 47 89 15 9 4 23 12 53 100 100 100 100 100 100 100 100 85 100 100 98 98 100 100 100 100 100 100 100 100 100
100 100 100 100 100 100 100 100 100 100 100 100 46 3 0 5 28 96 80 100 100 96 86 55 83 58 87 15 34 58 98 100 100 100 100 100 100 100 100 100 97 96 90 36 96 93 61 100 100 100 100 100 100 100
87 100 100 100 100 100 100 100 100 100 100 39 2 4 4 2 5 5 29 99 100 82 100 97 100 59 5 12 91 71 84 100 100 100 100 95 77 100 100 100 95 100 100 99 90 14 86 28 90 80 95 100 100 100
97 100 100 100 100 100 100 100 100 95 8 15 4 5 13 5 5 29 86 77 96 98 96 86 83 38 5 24 44 43 100 100 100 100 100 100 100 100 100 100 100 100 100 100 98 47 65 25 95 93 99 100 100 100
100 100 100 100 100 100 100 100 100 87 22 15 97 69 36 5 5 5 5 17 28 20 60 94 64 28 48 75 85 92 100 97 100 100 100 68 83 100 100 98 92 95 100 100 100 100 100 100 100 99 93 100 100 100
100 100 100 100 100 100 100 91 91 68 18 64 94 90 52 86 5 8 24 5 8 98 66 98 72 62 53 96 100 95 99 91 100 85 93 94 79 85 100 100 100 100 94 89 99 100 100 100 100 100 100 100 100 100
100 99 100 100 100 100 100 61 13 12 39 79 72 57 5 31 38 7 92 55 18 69 100 71 54 71 97 99 97 100 100 86 64 81 100 100 100 98 100 100 100 100 100 100 100 100 100 100 100 100 100 100 100 100
100 100 100 100 100 69 96 31 12 23 11 42 60 34 98 63 86 91 100 93 30 100 48 82 92 96 91 86 100 84 68 54 65 55 99 100 100 100 100 100 100 100 100 100 100 100 100 100 100 100 100 100 100 100
100 100 100 100 100 95 48 83 85 77 77 74 100 97 63 88 85 100 100 87 92 71 81 99 96 95 91 32 76 88 86 100 98 98 100 100 100 100 100 100 100 100 100 100 100 100 100 100 100 100 100 100 100 100
100 100 100 100 99 99 94 98 88 85 100 53 78 83 25 79 98 96 93 72 30 28 99 99 91 64 72 24 61 100 100 100 100 100 100 100 100 100 100 100 100 100 100 100 100 100 100 100 100 100 100 100 100 100
100 100 100 99 100 100 100 100 64 100 96 100 98 84 97 98 75 40 44 5 21 38 99 69 60 100 78 85 100 96 100 100 100 100 100 100 100 100 100 100 100 100 100 100 100 100 100 100 100 100 100 100 100 100
100 100 100 100 89 100 99 99 84 100 98 99 72 77 100 87 58 19 6 57 56 72 54 98 100 100 100 100 100 100 100 100 100 100 100 100 100 100 100 100 100 100 100 100 100 100 100 100 100 100 100 100 100 100
100 100 100 100 100 84 89 80 100 100 99 100 86 72 98 67 11 31 45 18 63 57 78 88 100 100 100 100 100 100 100 100 100 100 100 100 100 100 100 100 100 100 100 98 100 100 100 100 100 100 100 100 100 100
100 97 100 100 100 99 100 87 100 54 83 67 51 55 90 75 59 38 5 9 5 21 81 98 100 100 100 100 100 100 100 100 100 100 100 100 100 100 100 100 100 99 91 100 100 100 100 99 100 100 100 100 100 100
100 100 100 100 100 97 100 98 56 65 81 18 87 58 85 30 32 71 43 5 5 99 79 89 93 98 99 98 100 100 100 100 100 100 100 100 100 100 100 100 100 100 100 93 81 81 99 100 98 100 100 100 100 100
100 100 100 100 100 100 100 77 78 100 83 64 34 53 100 98 100 100 76 29 100 96 93 96 89 98 100 100 100 100 100 100 100 100 100 99 100 100 100 100 100 100 100 100 93 99 88 86 98 99 100 99 99 100
100 100 100 100 100 100 68 100 100 87 9 5 19 16 89 97 85 59 94 98 82 100 100 97 97 100 89 100 100 100 99 95 96 99 97 100 100 100 100 100 100 100 100 100 100 100 98 100 96 92 82 78 85 75
100 100 100 100 100 76 98 100 89 12 5 19 65 56 70 45 50 36 99 99 98 99 88 59 60 67 82 100 100 97 83 100 95 100 97 86 98 100 100 100 100 100 100 100 100 100 100 100 100 100 95 88 72 43
100 100 100 99 90 100 100 94 27 5 43 94 18 4 5 65 82 95 100 96 100 92 70 19 9 87 100 99 43 20 88 100 100 100 99 97 100 99 100 99 90 100 95 99 100 100 100 100 100 100 100 99 100 100
100 82 49 48 65 100 68 9 27 44 54 3 5 5 28 5 13 99 100 100 100 92 100 100 100 100 95 99 100 97 99 100 100 100 91 99 100 100 100 100 100 100 100 100 100 100 100 97 92 93 99 94 95 90
40 98 68 95 99 64 18 6 6 5 4 0 6 21 7 89 99 100 100 100 100 100 100 100 100 100 100 91 74 61 23 9 97 100 100 100 100 100 100 100 100 100 100 100 100 100 100 100 100 100 99 100 95 89
74 81 100 88 66 7 4 22 22 4 5 5 53 34 39 32 100 100 100 100 100 100 100 100 100 94 100 98 95 49 18 5 5 46 92 100 100 100 100 100 100 100 100 100 100 100 100 98 100 100 100 100 100 97
100 100 99 31 9 26 5 5 5 29 64 5 5 5 64 95 100 100 100 100 100 100 100 100 100 53 5 55 63 23 5 73 88 63 19 30 80 100 100 100 100 100 100 100 100 100 100 100 100 100 100 97 100 100
94 52 17 39 5 2 73 57 64 76 66 79 49 12 88 100 100 100 100 100 100 100 94 86 28 78 90 100 97 41 90 92 97 100 100 99 98 33 63 95 98 100 100 100 94 99 100 94 99 97 100 100 100 100
42 5 7 26 35 77 78 62 68 21 42 25 54 67 99 100 100 100 100 100 100 100 86 85 78 12 94 97 100 98 43 43 100 100 100 100 99 93 84 72 98 100 100 100 100 100 95 94 89 94 100 97 100 100
6 62 5 0 24 16 8 30 81 22 51 51 90 89 100 100 100 100 99 82 89 100 87 91 60 68 52 69 82 100 100 100 100 93 97 96 100 88 95 100 100 95 100 100 100 100 100 100 100 100 100 100 100 100
31 5 30 5 5 5 5 25 18 9 11 51 91 100 100 97 100 97 87 43 43 34 75 91 54 98 100 94 29 83 97 97 83 97 100 100 100 100 100 82 53 90 100 100 91 83 94 100 98 100 100 100 100 100